Zurück zum Katalog

OPS 0856 DEB

LostPO
NORAD 25932·DEBRIS·🇺🇸 United States

Gestartet Aug 19, 1966 von Vandenberg Space Force Base

Loading…

Nächste Überflüge (nächste 24 Stunden)

TLE

VeraltetSource: Space-Track

Epoche: Mar 17, 2024, 05:51 UTC

1 25932U 66077Y   24077.24409860  .00019619  00000-0  57878+0 0  9990
2 25932  88.4893  14.9499 1960201 106.7780 275.6401  9.17427422813406

Verfolge OPS 0856 DEB in Echtzeit mit AllMySat

Download on the App Store